CW8428 Weather Reports


Display with metric or nautical units.
time (UTC)temp
F
wind
direction
speed
MPH
gust
MPH
rain 1hr
in
rain 24hr
in
rain mn
in
humidity
%
barometer
mb
20260509105617 40 286 1.0 3.0 0.00 0.00 0.00 80 1018.4
20260509104648 39 275 1.0 2.0 0.00 0.00 0.00 79 1018.4
20260509103616 39 275 1.0 4.0 0.00 0.00 0.00 77 1018.3
20260509102646 40 275 2.0 4.0 0.00 0.00 0.00 76 1018.1
20260509101635 42 300 2.0 4.0 0.00 0.00 0.00 72 1018.0
20260509100644 44 316 2.0 4.0 0.00 0.00 0.00 72 1018.0
20260509095627 45 319 0.0 2.0 0.00 0.00 0.00 71 1018.0
20260509094617 45 319 1.0 3.0 0.00 0.00 0.00 71 1017.9
20260509093628 44 319 0.0 4.0 0.00 0.00 0.00 72 1017.7
20260509092637 44 290 1.0 2.0 0.00 0.00 0.00 73 1017.7
20260509091631 44 290 0.0 2.0 0.00 0.00 0.00 72 1017.7
20260509090620 44 290 1.0 3.0 0.00 0.00 0.00 73 1017.7
20260509085640 43 289 1.0 3.0 0.00 0.00 0.00 74 1017.7
20260509084647 43 289 0.0 2.0 0.00 0.00 0.00 73 1017.6
20260509083618 44 289 0.0 2.0 0.00 0.00 0.00 71 1017.4
20260509082648 45 290 3.0 5.0 0.00 0.00 0.00 67 1017.5
20260509081616 46 65 2.0 3.0 0.00 0.00 0.00 65 1017.4
20260509080626 48 65 0.0 3.0 0.00 0.00 0.00 61 1017.4
20260509075629 49 65 1.0 3.0 0.00 0.00 0.00 59 1017.2
20260509074617 49 56 0.0 3.0 0.00 0.00 0.00 60 1017.1
20260509073626 48 38 1.0 4.0 0.00 0.00 0.00 63 1017.1
20260509072614 48 219 1.0 3.0 0.00 0.00 0.00 64 1017.0
20260509071627 47 241 1.0 3.0 0.00 0.00 0.00 65 1016.9
20260509070615 47 242 1.0 2.0 0.00 0.00 0.00 65 1016.8
20260509065615 48 242 0.0 2.0 0.00 0.00 0.00 64 1016.9
20260509064644 48 242 2.0 3.0 0.00 0.00 0.00 64 1016.9
20260509063618 50 242 2.0 4.0 0.00 0.00 0.00 58 1016.7
20260509062627 52 119 1.0 2.0 0.00 0.00 0.00 54 1016.6
20260509061618 52 119 2.0 4.0 0.00 0.00 0.00 53 1016.4
20260509060613 53 119 0.0 2.0 0.00 0.00 0.00 52 1016.5
20260509055636 53 119 1.0 2.0 0.00 0.00 0.00 52 1016.3
20260509054626 53 119 1.0 3.0 0.00 0.00 0.00 51 1016.2
20260509053614 54 160 0.0 2.0 0.00 0.00 0.00 51 1016.1
20260509052624 54 163 3.0 4.0 0.00 0.00 0.00 51 1016.2
20260509051612 54 175 1.0 4.0 0.00 0.00 0.00 51 1016.2
20260509050627 54 178 0.0 4.0 0.00 0.00 0.00 51 1016.3
20260509045627 53 216 0.0 2.0 0.00 0.00 0.00 55 1016.2
20260509044613 54 220 0.0 3.0 0.00 0.00 0.00 54 1016.1
20260509043620 55 220 0.0 1.0 0.00 0.00 0.00 52 1016.1
20260509042630 55 220 0.0 0.0 0.00 0.00 0.00 51 1015.9
20260509041618 56 220 0.0 3.0 0.00 0.00 0.00 50 1015.8
20260509040625 56 220 0.0 4.0 0.00 0.00 0.00 50 1015.6
20260509035620 58 148 1.0 3.0 0.00 0.00 0.00 44 1015.5
20260509034650 59 101 1.0 3.0 0.00 0.00 0.00 44 1015.3
20260509033614 59 99 3.0 6.0 0.00 0.00 0.00 42 1015.2
20260509032622 60 160 2.0 4.0 0.00 0.00 0.00 42 1015.1
20260509031626 60 161 2.0 5.0 0.00 0.00 0.00 41 1014.9
20260509030617 61 150 4.0 6.0 0.00 0.00 0.00 40 1014.7
20260509025617 61 190 0.0 0.0 0.00 0.00 0.00 42 1014.6
20260509024624 62 190 0.0 3.0 0.00 0.00 0.00 39 1014.6
20260509023629 65 166 1.0 3.0 0.00 0.00 0.00 36 1014.5
20260509022617 66 166 3.0 5.0 0.00 0.00 0.00 34 1014.4
20260509021624 68 288 2.0 3.0 0.00 0.00 0.00 29 1014.3
20260509020613 69 225 1.0 3.0 0.00 0.00 0.00 31 1014.3
20260509015631 70 225 2.0 3.0 0.00 0.00 0.00 30 1014.3
20260509014622 71 225 2.0 3.0 0.00 0.00 0.00 28 1014.3
20260509013631 71 225 1.0 5.0 0.00 0.00 0.00 28 1014.3
20260509012615 72 246 3.0 5.0 0.00 0.00 0.00 26 1014.4
20260509011642 72 250 2.0 3.0 0.00 0.00 0.00 30 1014.5
20260509010612 72 255 4.0 8.0 0.00 0.00 0.00 24 1014.6
20260509005652 72 265 3.0 8.0 0.00 0.00 0.00 25 1014.6
20260509004618 72 232 4.0 12.0 0.00 0.00 0.00 25 1014.7
20260509003627 73 229 6.0 12.0 0.00 0.00 0.00 25 1014.7
20260509002632 73 258 4.0 11.0 0.00 0.00 0.00 26 1014.8
20260509001616 73 237 6.0 11.0 0.00 0.00 0.00 25 1014.8
20260509000628 73 225 7.0 11.0 0.00 0.00 0.00 24 1014.8
20260508235629 73 225 8.0 10.0 0.00 0.00 0.00 24 1014.8
20260508234638 74 212 6.0 9.0 0.00 0.00 0.00 24 1014.9
20260508233649 73 248 6.0 9.0 0.00 0.00 0.00 24 1014.9
20260508232617 73 215 5.0 11.0 0.00 0.00 0.00 23 1014.9
20260508231646 73 242 11.0 16.0 0.00 0.00 0.00 24 1015.0
20260508230629 73 257 7.0 12.0 0.00 0.00 0.00 24 1015.1
20260508225626 73 281 7.0 17.0 0.00 0.00 0.00 24 1015.1
20260508224615 73 294 7.0 13.0 0.00 0.00 0.00 23 1015.4
20260508223645 72 248 8.0 18.0 0.00 0.00 0.00 24 1015.5
20260508222614 73 275 8.0 18.0 0.00 0.00 0.00 30 1015.6
20260508221629 72 219 10.0 19.0 0.00 0.00 0.00 25 1015.6
20260508220640 73 259 9.0 14.0 0.00 0.00 0.00 26 1015.9
20260508215618 73 256 10.0 19.0 0.00 0.00 0.00 24 1015.8
20260508214627 73 248 11.0 19.0 0.00 0.00 0.00 27 1015.9
20260508213634 73 254 11.0 17.0 0.00 0.00 0.00 26 1015.9
20260508212626 73 284 9.0 16.0 0.00 0.00 0.00 27 1016.1
20260508211614 73 287 10.0 14.0 0.00 0.00 0.00 25 1016.1
20260508210642 73 281 10.0 16.0 0.00 0.00 0.00 26 1016.2
20260508205622 73 290 7.0 13.0 0.00 0.00 0.00 24 1016.1
20260508204614 72 294 10.0 16.0 0.00 0.00 0.00 25 1016.3
20260508203643 72 279 10.0 16.0 0.00 0.00 0.00 28 1016.3
20260508202613 71 211 6.0 11.0 0.00 0.00 0.00 27 1016.3
20260508201623 70 240 7.0 13.0 0.00 0.00 0.00 27 1016.3
20260508200617 70 221 7.0 11.0 0.00 0.00 0.00 28 1016.4
20260508195619 70 209 8.0 14.0 0.00 0.00 0.00 28 1016.4
20260508194630 70 186 7.0 15.0 0.00 0.00 0.00 29 1016.4
20260508193620 71 244 6.0 16.0 0.00 0.00 0.00 29 1016.3
20260508192614 70 240 10.0 17.0 0.00 0.00 0.00 29 1016.4